Regional Weather Roundup
Issued by NWS Spokane, WA

Home | Current Version | Previous Version | Text Only | Print | Product List | Glossary On
Versions: 1 2 3 4 5 6 7 8 9 10 11 12 13 14 15 16 17 18 19 20 21 22 23 24 25 26 27 28 29 30 31 32 33 34 35 36 37 38 39 40 41 42 43 44 45 46 47 48 49 50
000
NZUS01 KOTX 221810
RWROTX
EASTERN WASHINGTON/NORTHERN IDAHO ROUNDUP
NATIONAL WEATHER SERVICE, SPOKANE WA
1000 AM PST MON DEC 22 2014

Note: "fair" indicated few or no clouds below 12,000 feet with no
significant weather and/or obstructions to visibility.

...NORTHEAST WASHINGTON AND NORTHERN IDAHO PANHANDLE...

CITY           SKY/WX    TMP DP  RH WIND       PRES   REMARKS
SPOKANE INTL   MOSUNNY   38  30  73 W12       30.14R
SPOKANE DOWNTO SUNNY     39  30  70 W8        30.15R
COEUR D ALENE  MOSUNNY   37  30  75 SW8       30.13R
DEER PARK      SUNNY     35  32  88 S5        30.14R
SANDPOINT      MOSUNNY   39  32  75 S8        30.10R

...SOUTHEAST WASHINGTON AND SOUTHERN IDAHO PANHANDLE...

CITY           SKY/WX    TMP DP  RH WIND       PRES   REMARKS
WALLA WALLA    MOSUNNY   47  42  83 S9        30.28R
PULLMAN/MOSCOW SUNNY     40  35  83 W15G23    30.19R
LEWISTON       LGT RAIN  48  33  56 W20G29    30.19R
LOWELL           N/A     41  39  93 VRB5      30.17R

...COLUMBIA BASIN...

CITY           SKY/WX    TMP DP  RH WIND       PRES   REMARKS
EPHRATA        SUNNY     48  25  40 NW16G22   30.21R
MOSES LAKE     SUNNY     46  26  45 SW6       30.23R
TRI CITIES     SUNNY     50  36  58 W10       30.30R
HERMISTON      MOSUNNY   50  40  68 W8        30.30R
PENDLETON      SUNNY     46  38  73 W16       30.29R

...EAST SLOPES CASCADES...

CITY           SKY/WX    TMP DP  RH WIND       PRES   REMARKS
THE DALLES     SUNNY     54  39  57 VRB7      30.34R
YAKIMA         SUNNY     48  34  57 MISG      30.29R
ELLENSBURG     SUNNY     45  32  60 NW13      30.27R
WENATCHEE      SUNNY     46  27  47 NW18      30.23R
OMAK           SUNNY     37  31  78 CALM      30.22R

...SOUTHERN BRITISH COLUMBIA...

CITY           SKY/WX    TMP DP  RH WIND       PRES   REMARKS

...WESTERN MONTANA...

CITY           SKY/WX    TMP DP  RH WIND       PRES   REMARKS
MISSOULA       CLOUDY    38  26  62 NW9G20    30.04R

...NEIGHBORING CITIES...

CITY           SKY/WX    TMP DP  RH WIND       PRES   REMARKS
SEATTLE        PTSUNNY   46  41  82 CALM      30.37R



USA.gov is the U.S. government's official web portal to all federal, state and local government web resources and services.